Tracking 34138 objects as of 15-May-2026
HD Live streaming from Space Station
objects crossing your sky now

STARLINK-36253

Track STARLINK-36253 now!
10-day predictions
STARLINK-36253 is classified as:


NORAD ID: 68028
Int'l Code: 2026-040P
Perigee: 471.1 km
Apogee: 474.2 km
Inclination: 97.3 °
Period: 93.9 minutes
Semi major axis: 6843 km
RCS: Unknown
Launch date: March 1, 2026
Source: United States (US)
Launch site: AIR FORCE WESTERN TEST RANGE (AFWTR)
Your satellite tracking list
Your tracking list is empty




NASA's NSSDC Master Catalog

Two Line Element Set (TLE):
1 68028U 26040P   26135.27854451  .00020517  00000-0  63589-3 0  9998
2 68028  97.2874  83.4509 0002206  90.8608 269.2887 15.33454954 11606
Source of the keplerian elements: AFSPC